EW5212 Weather Reports


time (UTC)temp
C
wind
direction
speed
KPH
gust
KPH
rain 1hr
cm
rain 24hr
cm
rain mn
cm
humidity
%
barometer
mb
20260905010517 21 0.0 0.0 0.00 0.99 0.99 100 1013.6
20260905005515 22 0.0 0.0 0.00 0.99 0.99 100 1013.5
20260905004516 22 0.0 0.0 0.00 0.99 0.99 100 1013.7
20260905003537 22 0.0 0.0 0.00 0.99 0.99 100 1013.6
20260905002516 22 0.0 1.6 0.00 0.99 0.99 100 1013.3
20260905001515 22 0.0 0.0 0.00 0.99 0.99 100 1013.4
20260905000516 22 0.0 0.0 0.03 0.99 0.99 100 1012.9
20260904235515 22 0.0 0.0 0.03 0.99 0.99 100 1013.0
20260904234516 22 0.0 1.6 0.03 0.99 0.99 100 1013.3
20260904233516 22 0.0 3.2 0.08 0.99 0.99 100 1013.4
20260904232536 22 0.0 4.8 0.08 0.99 0.99 100 1013.4
20260904231515 22 0.0 4.8 0.08 0.99 0.99 100 1014.4
20260904230515 22 0.0 1.6 0.28 0.97 0.97 100 1014.4
20260904225555 22 0.0 0.0 0.61 0.97 0.97 99 1014.2
20260904224516 22 0.0 1.6 0.84 0.97 0.97 99 1013.8
20260904223535 22 0.0 6.4 0.81 0.91 0.91 99 1014.5
20260904222515 22 270 1.6 9.7 0.81 0.91 0.91 99 1014.9
20260904221515 22 45 1.6 4.8 0.91 0.91 0.91 98 1014.5
20260904220516 22 0.0 4.8 0.69 0.69 0.69 98 1015.1
20260904215515 23 270 3.2 11.3 0.36 0.36 0.36 96 1015.7
20260904214555 22 0.0 1.6 0.13 0.13 0.13 97 1014.4
20260904213515 22 45 3.2 9.7 0.10 0.10 0.10 93 1013.8
20260904212515 25 45 8.0 16.1 0.10 0.10 0.10 85 1014.8
20260904211536 29 45 4.8 16.1 0.00 0.00 0.00 77 1014.7
20260904210636 32 315 3.2 12.9 0.00 0.00 0.00 73 1013.7
20260904205515 33 0.0 0.0 0.00 0.00 0.00 75 1012.9
20260904204515 33 0.0 0.0 0.00 0.00 0.00 74 1012.5
20260904203516 34 0.0 1.6 0.00 0.00 0.00 69 1012.6
20260904202516 35 0.0 1.6 0.00 0.00 0.00 63 1012.4
20260904201535 35 0.0 0.0 0.00 0.00 0.00 69 1012.2
20260904200515 34 0.0 1.6 0.00 0.00 0.00 68 1012.5
20260904195515 33 0.0 0.0 0.00 0.00 0.00 72 1012.8
20260904194515 35 0.0 1.6 0.00 0.00 0.00 68 1013.2
20260904193515 36 0.0 1.6 0.00 0.00 0.00 63 1013.2
20260904192515 36 270 1.6 6.4 0.00 0.00 0.00 59 1013.3
20260904191515 36 0.0 1.6 0.00 0.00 0.00 64 1013.4
20260904190535 36 0.0 3.2 0.00 0.00 0.00 64 1013.5
20260904185515 36 23 1.6 4.8 0.00 0.00 0.00 62 1013.7
20260904184516 36 270 1.6 3.2 0.00 0.00 0.00 59 1014.0
20260904183515 35 270 1.6 8.0 0.00 0.00 0.00 62 1014.3
20260904182515 35 45 1.6 3.2 0.00 0.00 0.00 67 1014.4
20260904181515 35 0.0 1.6 0.00 0.00 0.00 67 1014.5
20260904180515 35 23 1.6 3.2 0.00 0.00 0.00 66 1014.7
20260904175515 35 0.0 1.6 0.00 0.00 0.00 66 1014.8
20260904174516 35 0.0 3.2 0.00 0.00 0.00 65 1014.9
20260904173515 36 0.0 1.6 0.00 0.00 0.00 64 1015.0
20260904172515 35 0.0 1.6 0.00 0.00 0.00 66 1015.2
20260904171536 35 23 1.6 6.4 0.00 0.00 0.00 63 1015.1
20260904170515 35 0.0 1.6 0.00 0.00 0.00 63 1015.0
20260904165515 35 0.0 6.4 0.00 0.00 0.00 63 1015.1
20260904164515 34 45 1.6 4.8 0.00 0.00 0.00 65 1015.2
20260904163515 35 0.0 1.6 0.00 0.00 0.00 68 1015.2
20260904162517 34 0.0 3.2 0.00 0.00 0.00 69 1015.3
20260904161515 33 0.0 1.6 0.00 0.00 0.00 70 1015.3
20260904160515 34 45 1.6 3.2 0.00 0.00 0.00 69 1015.4
20260904155515 34 0.0 1.6 0.00 0.00 0.00 69 1015.6
20260904154515 33 45 1.6 3.2 0.00 0.00 0.00 69 1015.8
20260904153515 33 315 1.6 4.8 0.00 0.00 0.00 70 1015.7
20260904152535 33 0.0 3.2 0.00 0.00 0.00 71 1015.5
20260904151517 33 68 1.6 3.2 0.00 0.00 0.00 71 1015.6
20260904150517 33 270 3.2 8.0 0.00 0.00 0.00 68 1015.5
20260904145515 33 248 1.6 3.2 0.00 0.00 0.00 70 1015.5
20260904144517 33 0.0 3.2 0.00 0.00 0.00 73 1015.5
20260904143517 33 0.0 3.2 0.00 0.00 0.00 72 1015.4
20260904142517 32 293 1.6 6.4 0.00 0.00 0.00 73 1015.3
20260904141517 32 293 1.6 4.8 0.00 0.00 0.00 75 1015.3
20260904140537 32 0.0 3.2 0.00 0.00 0.00 75 1015.2
20260904135517 31 0.0 3.2 0.00 0.00 0.00 77 1015.4
20260904134517 31 0.0 3.2 0.00 0.00 0.00 77 1015.2
20260904133517 30 0.0 0.0 0.00 0.00 0.00 80 1015.2
20260904132517 30 0.0 1.6 0.00 0.00 0.00 80 1015.1
20260904131538 28 270 1.6 4.8 0.00 0.00 0.00 82 1015.2
20260904130517 28 0.0 4.8 0.00 0.00 0.00 85 1015.1
20260904125517 27 248 1.6 9.7 0.00 0.00 0.00 87 1015.1
20260904124517 26 270 1.6 8.0 0.00 0.00 0.00 89 1015.3
20260904123517 26 0.0 1.6 0.00 0.00 0.00 91 1015.2
20260904122517 25 248 3.2 9.7 0.00 0.00 0.00 92 1015.1
20260904121516 24 248 1.6 6.4 0.00 0.00 0.00 97 1015.2
20260904120537 23 0.0 1.6 0.00 0.00 0.00 100 1015.2
20260904115517 22 0.0 0.0 0.00 0.00 0.00 100 1015.1
20260904114517 22 0.0 0.0 0.00 0.00 0.00 99 1014.9
20260904113517 22 0.0 0.0 0.00 0.00 0.00 99 1014.9
20260904112517 21 0.0 0.0 0.00 0.00 0.00 99 1015.0
20260904111517 21 0.0 0.0 0.00 0.00 0.00 99 1015.1
20260904110516 21 0.0 0.0 0.00 0.00 0.00 99 1015.0
20260904105517 21 0.0 0.0 0.00 0.00 0.00 99 1014.9
20260904104537 22 0.0 0.0 0.00 0.00 0.00 99 1015.0
20260904103557 22 0.0 0.0 0.00 0.00 0.00 98 1014.8
20260904102517 22 0.0 0.0 0.00 0.00 0.00 98 1014.9
20260904101517 22 0.0 0.0 0.00 0.00 0.00 98 1014.9
20260904100517 22 0.0 0.0 0.00 0.00 0.00 98 1014.8
20260904095517 22 0.0 0.0 0.00 0.00 0.00 98 1015.0
20260904094517 22 0.0 0.0 0.00 0.00 0.00 98 1015.0
20260904093517 22 0.0 0.0 0.00 0.00 0.00 98 1015.1
20260904092516 22 0.0 0.0 0.00 0.00 0.00 98 1015.2
20260904091517 22 0.0 0.0 0.00 0.00 0.00 97 1015.1
20260904090516 22 0.0 0.0 0.00 0.00 0.00 97 1015.2
20260904085517 23 0.0 0.0 0.00 0.00 0.00 97 1015.2
20260904084518 23 0.0 0.0 0.00 0.00 0.00 97 1015.3
20260904083517 23 0.0 0.0 0.00 0.00 0.00 96 1015.2
20260904082517 23 0.0 0.0 0.00 0.00 0.00 96 1015.0
20260904081516 23 0.0 0.0 0.00 0.00 0.00 96 1014.9
20260904080517 23 0.0 0.0 0.00 0.00 0.00 96 1014.9
20260904075517 23 0.0 0.0 0.00 0.00 0.00 95 1014.9
20260904074516 24 0.0 1.6 0.00 0.00 0.00 95 1014.7
20260904073517 23 0.0 0.0 0.00 0.00 0.00 94 1014.8
20260904072517 24 0.0 0.0 0.00 0.00 0.00 94 1014.8
20260904071517 24 0.0 0.0 0.00 0.00 0.00 93 1014.6
20260904070517 25 0.0 0.0 0.00 0.00 0.00 92 1014.6
20260904065536 25 0.0 0.0 0.00 0.00 0.00 91 1014.5
20260904064516 25 0.0 0.0 0.00 0.00 0.00 90 1014.8
20260904063536 25 0.0 0.0 0.00 0.00 0.00 89 1014.8
20260904062521 26 0.0 0.0 0.00 0.00 0.00 88 1014.9
20260904061517 26 0.0 1.6 0.00 0.00 0.00 87 1014.9
20260904060517 26 0.0 3.2 0.00 0.00 0.00 90 1015.5
20260904055516 26 68 1.6 3.2 0.00 0.00 0.00 93 1015.6
20260904054516 26 0.0 3.2 0.00 0.00 0.00 94 1015.6
20260904053516 26 0.0 0.0 0.00 0.00 0.00 93 1015.0
20260904052516 26 0.0 3.2 0.00 0.00 0.00 91 1014.8
20260904051517 26 0.0 1.6 0.00 0.00 0.00 91 1014.8
20260904050517 25 0.0 1.6 0.00 0.00 0.00 95 1015.0
20260904045516 25 0.0 0.0 0.00 0.00 0.00 96 1015.2
20260904044517 25 0.0 0.0 0.00 0.00 0.00 96 1015.1
20260904043516 25 0.0 0.0 0.00 0.00 0.00 96 1015.1
20260904042516 25 0.0 0.0 0.00 0.00 0.00 97 1015.2
20260904041517 25 0.0 0.0 0.00 0.00 0.00 97 1015.1
20260904040516 25 0.0 0.0 0.00 0.00 0.00 98 1015.2
20260904035516 25 0.0 0.0 0.00 0.00 0.00 98 1015.2
20260904034516 25 0.0 0.0 0.00 0.00 0.00 99 1015.3
20260904033516 25 0.0 0.0 0.00 0.00 0.00 99 1015.3
20260904032516 25 0.0 0.0 0.00 0.00 0.00 99 1015.5
20260904031517 25 0.0 0.0 0.00 0.00 0.00 99 1015.4
20260904030516 25 0.0 0.0 0.00 0.00 0.00 98 1015.3
20260904025536 25 0.0 0.0 0.00 0.00 0.00 98 1015.3
20260904024537 25 0.0 0.0 0.00 0.00 0.00 98 1015.3
20260904023516 25 0.0 0.0 0.00 0.00 0.00 98 1015.3
20260904022516 26 0.0 0.0 0.00 0.00 0.00 98 1015.3
20260904021516 26 0.0 0.0 0.00 0.00 0.00 98 1015.1
20260904020516 26 0.0 0.0 0.00 0.00 0.00 98 1015.2
20260904015517 26 0.0 0.0 0.00 0.00 0.00 98 1015.3
20260904014516 26 0.0 0.0 0.00 0.00 0.00 97 1015.5
20260904013516 26 0.0 0.0 0.00 0.00 0.00 97 1015.7
20260904012516 26 0.0 0.0 0.00 0.00 0.00 97 1015.6
20260904011516 26 0.0 0.0 0.00 0.00 0.00 97 1015.8